EZY17BC EGBB-LMML

Flight info

Callsign EZY17BC
Flight time N/A
Altitude 35000
Route ADMEX Y321 EMKUK UL612 OGULO DCT OKASI DCT OKEKO DCT MOU DCT MADIV DCT MOKIP DCT TUFTA DCT KOGAS DCT MEDAM DCT NITAM DCT MOGBO DCT BAKRO DCT PAL DCT MARON DCT EKOLA L12 GZO
Aircraft A320/M-SDE2E3FGHIJ1RWXYZ/LB1

Departure

Time N/A
Airport Birmingham Airport (EGBB)

Arrival

Time 2026-05-04 23:31
Airport Malta International Airport (LMML)
Time Latitude Longitude Altitude Speed Heading
2026-05-04 23:00 38.54597 12.87387 35154 ft 460 kts 160°
2026-05-04 23:01 38.48791 12.90845 35151 ft 461 kts 159°
2026-05-04 23:01 38.43002 12.94358 35146 ft 460 kts 159°
2026-05-04 23:02 38.37204 12.97823 35142 ft 460 kts 159°
2026-05-04 23:02 38.31397 13.01252 35139 ft 460 kts 160°
2026-05-04 23:03 38.25584 13.04667 35139 ft 460 kts 159°
2026-05-04 23:03 38.19775 13.08092 35134 ft 460 kts 159°
2026-05-04 23:04 38.13961 13.11522 35134 ft 461 kts 159°
2026-05-04 23:04 38.08140 13.14943 35133 ft 461 kts 159°
2026-05-04 23:05 38.02314 13.18341 35126 ft 461 kts 160°
2026-05-04 23:05 37.96419 13.21529 35128 ft 460 kts 162°
2026-05-04 23:06 37.90492 13.24583 35130 ft 460 kts 162°
2026-05-04 23:06 37.84562 13.27656 35132 ft 461 kts 162°
2026-05-04 23:07 37.78641 13.30780 35133 ft 461 kts 162°
2026-05-04 23:07 37.72721 13.33915 35129 ft 461 kts 162°
2026-05-04 23:08 37.66793 13.37019 35113 ft 461 kts 162°
2026-05-04 23:08 37.63835 13.38562 34850 ft 458 kts 162°
2026-05-04 23:08 37.60909 13.40090 34393 ft 454 kts 162°
2026-05-04 23:09 37.57995 13.41609 33837 ft 452 kts 162°
2026-05-04 23:09 37.55096 13.43122 33288 ft 451 kts 162°
2026-05-04 23:09 37.52205 13.44634 32746 ft 449 kts 161°
2026-05-04 23:09 37.49330 13.46139 32212 ft 447 kts 161°
2026-05-04 23:10 37.46463 13.47637 31676 ft 445 kts 161°
2026-05-04 23:10 37.43644 13.49106 31163 ft 443 kts 161°
2026-05-04 23:10 37.40765 13.50604 30638 ft 441 kts 161°
2026-05-04 23:10 37.37979 13.52051 30135 ft 438 kts 161°
2026-05-04 23:11 37.35171 13.53512 29641 ft 435 kts 160°
2026-05-04 23:11 37.32380 13.54964 29147 ft 433 kts 160°
2026-05-04 23:11 37.29608 13.56401 28669 ft 430 kts 161°
2026-05-04 23:11 37.26852 13.57825 28189 ft 427 kts 160°
2026-05-04 23:12 37.24113 13.59240 27710 ft 424 kts 161°
2026-05-04 23:12 37.21394 13.60645 27250 ft 422 kts 160°
2026-05-04 23:12 37.18686 13.62043 26759 ft 419 kts 160°
2026-05-04 23:12 37.15996 13.63431 26280 ft 417 kts 160°
2026-05-04 23:13 37.13319 13.64816 25822 ft 415 kts 160°
2026-05-04 23:13 37.10658 13.66193 25337 ft 413 kts 160°
2026-05-04 23:13 37.08010 13.67561 24842 ft 411 kts 160°
2026-05-04 23:13 37.05376 13.68917 24361 ft 408 kts 160°
2026-05-04 23:14 37.02773 13.70259 24143 ft 399 kts 160°
2026-05-04 23:14 37.00243 13.71563 24163 ft 391 kts 160°
2026-05-04 23:14 36.97733 13.72854 24165 ft 390 kts 160°
2026-05-04 23:14 36.95226 13.74143 24169 ft 389 kts 160°
2026-05-04 23:15 36.92722 13.75431 24173 ft 389 kts 160°
2026-05-04 23:15 36.90218 13.76716 24173 ft 389 kts 160°
2026-05-04 23:15 36.87711 13.77998 23560 ft 393 kts 160°
2026-05-04 23:15 36.85143 13.79307 22707 ft 402 kts 160°
2026-05-04 23:16 36.82551 13.80629 22170 ft 402 kts 160°
2026-05-04 23:16 36.79970 13.81948 21721 ft 399 kts 160°
2026-05-04 23:16 36.77412 13.83257 21270 ft 397 kts 160°
2026-05-04 23:16 36.74903 13.84543 20835 ft 393 kts 160°
2026-05-04 23:17 36.72381 13.85837 20389 ft 391 kts 160°
2026-05-04 23:17 36.69873 13.87121 19948 ft 388 kts 160°
2026-05-04 23:17 36.67386 13.88389 19524 ft 385 kts 160°
2026-05-04 23:17 36.64912 13.89648 19080 ft 383 kts 160°
2026-05-04 23:18 36.62458 13.90894 18574 ft 378 kts 160°
2026-05-04 23:18 36.60038 13.92123 17795 ft 374 kts 160°
2026-05-04 23:18 36.57640 13.93340 17044 ft 370 kts 160°
2026-05-04 23:18 36.55242 13.94559 16299 ft 365 kts 160°
2026-05-04 23:19 36.52934 13.95733 15590 ft 361 kts 160°
2026-05-04 23:19 36.50624 13.96907 14869 ft 356 kts 159°
2026-05-04 23:19 36.48328 13.98021 14144 ft 352 kts 161°
2026-05-04 23:19 36.46037 13.99022 13516 ft 345 kts 163°
2026-05-04 23:20 36.43806 13.99938 13123 ft 331 kts 163°
2026-05-04 23:20 36.41655 14.00803 12736 ft 319 kts 163°
2026-05-04 23:20 36.39838 14.01533 12419 ft 317 kts 163°
2026-05-04 23:20 36.37743 14.02385 12031 ft 317 kts 163°
2026-05-04 23:21 36.35650 14.03248 11646 ft 317 kts 162°
2026-05-04 23:21 36.33592 14.04102 11261 ft 316 kts 162°
2026-05-04 23:21 36.31508 14.04969 10864 ft 315 kts 162°
2026-05-04 23:21 36.29431 14.05834 10478 ft 314 kts 162°
2026-05-04 23:22 36.27384 14.06687 10249 ft 307 kts 162°
2026-05-04 23:22 36.25369 14.07525 9882 ft 305 kts 162°
2026-05-04 23:22 36.23367 14.08358 9510 ft 303 kts 162°
2026-05-04 23:22 36.21373 14.09189 9147 ft 300 kts 161°
2026-05-04 23:23 36.19402 14.10012 8781 ft 298 kts 161°
2026-05-04 23:23 36.17470 14.10822 8620 ft 287 kts 161°
2026-05-04 23:23 36.15615 14.11607 8472 ft 277 kts 159°
2026-05-04 23:23 36.13946 14.12737 8187 ft 272 kts 142°
2026-05-04 23:24 36.12571 14.14325 7832 ft 269 kts 134°
2026-05-04 23:24 36.11274 14.15960 7312 ft 263 kts 134°
2026-05-04 23:24 36.10006 14.17546 7171 ft 260 kts 134°
2026-05-04 23:24 36.08739 14.19130 6920 ft 257 kts 135°
2026-05-04 23:25 36.07483 14.20697 6307 ft 256 kts 135°
2026-05-04 23:25 36.06212 14.22272 5777 ft 251 kts 135°
2026-05-04 23:25 36.05005 14.23775 5555 ft 244 kts 135°
2026-05-04 23:25 36.03818 14.25257 5248 ft 241 kts 135°
2026-05-04 23:26 36.02658 14.26705 4927 ft 232 kts 135°
2026-05-04 23:26 36.01549 14.28093 4625 ft 225 kts 135°
2026-05-04 23:26 36.00482 14.29423 4333 ft 216 kts 135°
2026-05-04 23:26 35.99446 14.30715 4060 ft 208 kts 135°
2026-05-04 23:27 35.98451 14.31953 3786 ft 199 kts 136°
2026-05-04 23:27 35.97496 14.33146 3546 ft 194 kts 136°
2026-05-04 23:27 35.96522 14.34357 3266 ft 203 kts 136°
2026-05-04 23:27 35.95519 14.35606 2992 ft 205 kts 135°
2026-05-04 23:28 35.94537 14.36830 2720 ft 195 kts 136°
2026-05-04 23:28 35.93617 14.37976 2473 ft 182 kts 136°
2026-05-04 23:28 35.92752 14.39050 2267 ft 174 kts 136°
2026-05-04 23:28 35.91917 14.40088 2008 ft 166 kts 135°
2026-05-04 23:29 35.91122 14.41078 1791 ft 158 kts 135°
2026-05-04 23:29 35.90368 14.42014 1590 ft 151 kts 135°
2026-05-04 23:29 35.89638 14.42922 1394 ft 148 kts 135°
2026-05-04 23:29 35.88914 14.43819 1198 ft 147 kts 135°
2026-05-04 23:30 35.88197 14.44710 1006 ft 146 kts 135°
2026-05-04 23:30 35.87484 14.45600 801 ft 145 kts 135°
2026-05-04 23:30 35.86771 14.46485 621 ft 145 kts 135°
2026-05-04 23:30 35.86057 14.47367 431 ft 145 kts 135°
2026-05-04 23:31 35.85346 14.48242 288 ft 143 kts 135°
2026-05-04 23:31 35.84778 14.48950 259 ft 59 kts 135°
2026-05-04 23:31 35.84591 14.49178 259 ft 35 kts 134°
2026-05-04 23:31 35.84460 14.49419 259 ft 33 kts 116°
2026-05-04 23:32 35.84520 14.49582 259 ft 23 kts 321°
2026-05-04 23:32 35.84588 14.49545 259 ft 8 kts 56°
2026-05-04 23:32 35.84595 14.49553 259 ft 0 kts 37°
2026-05-04 23:33 35.84596 14.49554 259 ft 1 kts 36°
2026-05-04 23:33 35.84640 14.49576 259 ft 8 kts
2026-05-04 23:33 35.84691 14.49558 259 ft 7 kts 332°
2026-05-04 23:34 35.84727 14.49522 259 ft 8 kts 316°
2026-05-04 23:34 35.84770 14.49470 259 ft 8 kts 316°
2026-05-04 23:34 35.84808 14.49425 259 ft 7 kts 315°
2026-05-04 23:34 35.84839 14.49385 259 ft 6 kts 314°
2026-05-04 23:35 35.84865 14.49353 259 ft 5 kts 314°
2026-05-04 23:35 35.84890 14.49338 259 ft 3 kts 356°
2026-05-04 23:35 35.84911 14.49337 259 ft 3 kts 359°
2026-05-04 23:35 35.84932 14.49337 259 ft 3 kts 359°
2026-05-04 23:36 35.84949 14.49337 259 ft 2 kts 359°
2026-05-04 23:36 35.84952 14.49337 259 ft 0 kts 359°